| time (UTC) | temp F | wind direction | speed MPH | gust MPH | rain 1hr in | rain 24hr in | rain mn in | humidity % | barometer mb |
| 20260507114013 | 48 | 315 | 0.0 | 0.0 | 0.00 | 0.00 | 0.00 | 1014.2 | |
| 20260507113913 | 48 | 315 | 0.0 | 0.0 | 0.00 | 0.00 | 0.00 | 1014.3 | |
| 20260507113513 | 48 | 292 | 0.0 | 0.0 | 0.00 | 0.00 | 0.00 | 1014.2 | |
| 20260507113414 | 48 | 292 | 0.0 | 0.0 | 0.00 | 0.00 | 0.00 | 1014.3 | |
| 20260507113313 | 48 | 292 | 0.0 | 0.0 | 0.00 | 0.00 | 0.00 | 1014.4 | |
| 20260507112313 | 49 | 292 | 0.0 | 0.0 | 0.00 | 0.00 | 0.00 | 1014.5 | |
| 20260507111613 | 49 | 292 | 0.0 | 0.0 | 0.00 | 0.00 | 0.00 | 1014.4 | |
| 20260507111513 | 49 | 292 | 0.0 | 0.0 | 0.00 | 0.00 | 0.00 | 1014.5 | |
| 20260507111113 | 49 | 292 | 0.0 | 0.0 | 0.00 | 0.00 | 0.00 | 1014.5 | |
| 20260507111013 | 49 | 292 | 0.0 | 0.0 | 0.00 | 0.00 | 0.00 | 1014.5 | |
| 20260507110613 | 49 | 292 | 0.0 | 0.0 | 0.00 | 0.00 | 0.00 | 1014.6 | |
| 20260507105913 | 49 | 292 | 0.0 | 0.0 | 0.00 | 0.00 | 0.00 | 1014.5 | |
| 20260507105213 | 49 | 270 | 0.0 | 0.0 | 0.00 | 0.00 | 0.00 | 1014.7 | |
| 20260507105115 | 49 | 270 | 0.0 | 0.0 | 0.00 | 0.00 | 0.00 | 1014.6 | |
| 20260507104413 | 49 | 292 | 0.0 | 0.0 | 0.00 | 0.00 | 0.00 | 1014.7 | |
| 20260507104313 | 49 | 292 | 0.0 | 0.0 | 0.00 | 0.00 | 0.00 | 1014.8 | |
| 20260507104213 | 49 | 315 | 0.0 | 0.0 | 0.00 | 0.00 | 0.00 | 1014.5 | |
| 20260507103513 | 49 | 270 | 0.0 | 0.0 | 0.00 | 0.00 | 0.00 | 1014.7 | |
| 20260507103413 | 49 | 337 | 0.0 | 0.0 | 0.00 | 0.00 | 0.00 | 1014.8 | |
| 20260507102713 | 49 | 337 | 0.0 | 0.0 | 0.00 | 0.00 | 0.00 | 1014.7 | |
| 20260507102613 | 49 | 315 | 0.0 | 0.0 | 0.00 | 0.00 | 0.00 | 1014.6 | |
| 20260507101913 | 50 | 315 | 0.0 | 0.0 | 0.00 | 0.00 | 0.00 | 1014.7 | |
| 20260507101213 | 50 | 315 | 0.0 | 1.0 | 0.00 | 0.00 | 0.00 | 1014.8 | |
| 20260507100813 | 50 | 292 | 0.0 | 0.0 | 0.00 | 0.00 | 0.00 | 1014.7 | |
| 20260507100413 | 50 | 337 | 0.0 | 0.0 | 0.00 | 0.00 | 0.00 | 1014.8 | |
| 20260507100314 | 50 | 337 | 1.0 | 1.0 | 0.00 | 0.00 | 0.00 | 1014.8 | |
| 20260507100213 | 50 | 337 | 1.0 | 1.0 | 0.00 | 0.00 | 0.00 | 1014.6 | |
| 20260507100113 | 50 | 337 | 0.0 | 1.0 | 0.00 | 0.00 | 0.00 | 1014.9 | |
| 20260507100013 | 50 | 0 | 0.0 | 0.0 | 0.00 | 0.00 | 0.00 | 1014.8 | |
| 20260507095613 | 50 | 337 | 0.0 | 0.0 | 0.00 | 0.00 | 0.00 | 1014.8 | |
| 20260507094913 | 50 | 337 | 0.0 | 0.0 | 0.00 | 0.00 | 0.00 | 1014.9 | |
| 20260507094813 | 50 | 337 | 0.0 | 0.0 | 0.00 | 0.00 | 0.00 | 1015.0 | |
| 20260507094713 | 50 | 337 | 0.0 | 0.0 | 0.00 | 0.00 | 0.00 | 1014.9 | |
| 20260507094013 | 50 | 337 | 0.0 | 0.0 | 0.00 | 0.00 | 0.00 | 1014.9 | |
| 20260507093613 | 50 | 315 | 0.0 | 0.0 | 0.00 | 0.00 | 0.00 | 1014.9 | |
| 20260507093213 | 51 | 337 | 0.0 | 0.0 | 0.00 | 0.00 | 0.00 | 1015.0 | |
| 20260507093113 | 51 | 337 | 0.0 | 0.0 | 0.00 | 0.00 | 0.00 | 1015.0 | |
| 20260507093013 | 51 | 337 | 0.0 | 0.0 | 0.00 | 0.00 | 0.00 | 1015.1 | |
| 20260507092913 | 51 | 337 | 0.0 | 0.0 | 0.00 | 0.00 | 0.00 | 1015.0 | |
| 20260507092513 | 51 | 315 | 0.0 | 0.0 | 0.00 | 0.00 | 0.00 | 1015.0 | |
| 20260507091513 | 51 | 0 | 0.0 | 0.0 | 0.00 | 0.00 | 0.00 | 1015.4 | |
| 20260507090213 | 51 | 22 | 1.0 | 1.0 | 0.00 | 0.00 | 0.00 | 1015.3 | |
| 20260507090113 | 51 | 22 | 1.0 | 1.0 | 0.00 | 0.00 | 0.00 | 1015.2 | |
| 20260507090013 | 51 | 22 | 1.0 | 1.0 | 0.00 | 0.00 | 0.00 | 1015.2 | |
| 20260507085913 | 51 | 22 | 0.0 | 1.0 | 0.00 | 0.00 | 0.00 | 1015.3 | |
| 20260507084013 | 52 | 22 | 0.0 | 0.0 | 0.00 | 0.00 | 0.00 | 1015.6 | |
| 20260507082713 | 52 | 292 | 0.0 | 0.0 | 0.00 | 0.00 | 0.00 | 1015.8 | |
| 20260507081713 | 52 | 292 | 0.0 | 0.0 | 0.00 | 0.00 | 0.00 | 1015.7 | |
| 20260507081613 | 52 | 292 | 0.0 | 0.0 | 0.00 | 0.00 | 0.00 | 1015.8 | |
| 20260507081513 | 52 | 292 | 0.0 | 0.0 | 0.00 | 0.00 | 0.00 | 1015.6 | |
| 20260507081413 | 52 | 292 | 0.0 | 0.0 | 0.00 | 0.00 | 0.00 | 1015.6 | |
| 20260507080413 | 52 | 292 | 0.0 | 0.0 | 0.00 | 0.00 | 0.00 | 1016.0 | |
| 20260507080313 | 52 | 292 | 0.0 | 0.0 | 0.00 | 0.00 | 0.00 | 1015.8 | |
| 20260507080213 | 52 | 292 | 0.0 | 0.0 | 0.00 | 0.00 | 0.00 | 1015.6 | |
| 20260507075213 | 53 | 292 | 0.0 | 0.0 | 0.00 | 0.00 | 0.00 | 1015.8 | |
| 20260507074814 | 53 | 247 | 0.0 | 0.0 | 0.00 | 0.00 | 0.00 | 1015.6 | |
| 20260507074413 | 53 | 202 | 0.0 | 1.0 | 0.00 | 0.00 | 0.00 | 1015.8 | |
| 20260507074313 | 53 | 180 | 0.0 | 0.0 | 0.00 | 0.00 | 0.00 | 1015.9 | |
| 20260507073913 | 53 | 180 | 0.0 | 0.0 | 0.00 | 0.00 | 0.00 | 1015.8 | |
| 20260507073813 | 53 | 180 | 0.0 | 0.0 | 0.00 | 0.00 | 0.00 | 1015.9 | |
| 20260507073713 | 53 | 157 | 0.0 | 0.0 | 0.00 | 0.00 | 0.00 | 1016.0 | |
| 20260507073613 | 53 | 157 | 0.0 | 0.0 | 0.00 | 0.00 | 0.00 | 1016.0 | |
| 20260507073513 | 53 | 157 | 0.0 | 0.0 | 0.00 | 0.00 | 0.00 | 1015.8 | |
| 20260507072813 | 53 | 202 | 0.0 | 0.0 | 0.00 | 0.00 | 0.00 | 1015.6 | |
| 20260507072713 | 53 | 202 | 0.0 | 0.0 | 0.00 | 0.00 | 0.00 | 1015.7 | |
| 20260507071713 | 53 | 202 | 0.0 | 0.0 | 0.00 | 0.00 | 0.00 | 1015.7 | |
| 20260507071313 | 53 | 180 | 0.0 | 0.0 | 0.00 | 0.00 | 0.00 | 1015.9 | |
| 20260507070913 | 53 | 337 | 0.0 | 0.0 | 0.00 | 0.00 | 0.00 | 1015.8 | |
| 20260507070513 | 53 | 315 | 0.0 | 0.0 | 0.00 | 0.00 | 0.00 | 1016.0 | |
| 20260507070413 | 53 | 315 | 0.0 | 0.0 | 0.00 | 0.00 | 0.00 | 1015.7 | |
| 20260507070313 | 53 | 315 | 0.0 | 0.0 | 0.00 | 0.00 | 0.00 | 1015.8 | |
| 20260507070213 | 53 | 315 | 0.0 | 0.0 | 0.00 | 0.00 | 0.00 | 1015.9 | |
| 20260507064614 | 54 | 315 | 0.0 | 0.0 | 0.00 | 0.00 | 0.00 | 1015.7 | |
| 20260507064513 | 54 | 315 | 0.0 | 0.0 | 0.00 | 0.00 | 0.00 | 1015.8 | |
| 20260507064413 | 54 | 315 | 0.0 | 0.0 | 0.00 | 0.00 | 0.00 | 1015.9 | |
| 20260507064313 | 54 | 315 | 0.0 | 0.0 | 0.00 | 0.00 | 0.00 | 1016.0 | |
| 20260507064213 | 54 | 315 | 0.0 | 0.0 | 0.00 | 0.00 | 0.00 | 1016.0 | |
| 20260507063813 | 54 | 315 | 0.0 | 0.0 | 0.00 | 0.00 | 0.00 | 1016.0 | |
| 20260507062513 | 55 | 247 | 0.0 | 0.0 | 0.00 | 0.00 | 0.00 | 1016.0 | |
| 20260507062413 | 55 | 247 | 0.0 | 0.0 | 0.00 | 0.00 | 0.00 | 1016.1 | |
| 20260507062313 | 55 | 247 | 0.0 | 0.0 | 0.00 | 0.00 | 0.00 | 1016.0 | |
| 20260507062213 | 55 | 247 | 0.0 | 0.0 | 0.00 | 0.00 | 0.00 | 1016.0 | |
| 20260507062114 | 55 | 202 | 0.0 | 0.0 | 0.00 | 0.00 | 0.00 | 1016.0 | |
| 20260507061713 | 56 | 202 | 0.0 | 0.0 | 0.00 | 0.00 | 0.00 | 1016.2 | |
| 20260507061613 | 56 | 202 | 0.0 | 0.0 | 0.00 | 0.00 | 0.00 | 1015.9 | |
| 20260507060913 | 57 | 157 | 0.0 | 0.0 | 0.00 | 0.00 | 0.00 | 1015.9 | |
| 20260507060513 | 57 | 157 | 0.0 | 0.0 | 0.00 | 0.00 | 0.00 | 1016.2 | |
| 20260507055213 | 58 | 180 | 1.0 | 1.0 | 0.00 | 0.00 | 0.00 | 1016.0 | |
| 20260507054513 | 58 | 225 | 1.0 | 2.0 | 0.00 | 0.00 | 0.00 | 1015.8 | |
| 20260507054113 | 58 | 225 | 1.0 | 1.0 | 0.00 | 0.00 | 0.00 | 1015.6 | |
| 20260507054013 | 58 | 202 | 1.0 | 2.0 | 0.00 | 0.00 | 0.00 | 1015.7 | |
| 20260507053613 | 59 | 202 | 1.0 | 2.0 | 0.00 | 0.00 | 0.00 | 1015.8 | |
| 20260507053513 | 59 | 225 | 0.0 | 1.0 | 0.00 | 0.00 | 0.00 | 1015.9 | |
| 20260507053113 | 59 | 225 | 1.0 | 2.0 | 0.00 | 0.00 | 0.00 | 1015.9 | |
| 20260507052713 | 59 | 225 | 2.0 | 3.0 | 0.00 | 0.00 | 0.00 | 1015.7 | |
| 20260507052013 | 59 | 202 | 0.0 | 1.0 | 0.00 | 0.00 | 0.00 | 1016.0 | |
| 20260507051913 | 59 | 202 | 1.0 | 1.0 | 0.00 | 0.00 | 0.00 | 1015.7 | |
| 20260507051213 | 59 | 202 | 1.0 | 2.0 | 0.00 | 0.00 | 0.00 | 1015.9 | |
| 20260507051113 | 59 | 225 | 0.0 | 1.0 | 0.00 | 0.00 | 0.00 | 1015.6 | |
| 20260507051013 | 60 | 202 | 0.0 | 1.0 | 0.00 | 0.00 | 0.00 | 1015.7 | |
| 20260507050013 | 60 | 202 | 3.0 | 4.0 | 0.00 | 0.00 | 0.00 | 1015.6 | |
| 20260507045913 | 60 | 225 | 2.0 | 3.0 | 0.00 | 0.00 | 0.00 | 1016.0 | |
| 20260507044913 | 60 | 202 | 1.0 | 1.0 | 0.00 | 0.00 | 0.00 | 1015.8 | |
| 20260507044813 | 60 | 180 | 2.0 | 3.0 | 0.00 | 0.00 | 0.00 | 1015.8 | |
| 20260507044713 | 60 | 202 | 2.0 | 2.0 | 0.00 | 0.00 | 0.00 | 1015.7 | |
| 20260507043713 | 60 | 225 | 2.0 | 2.0 | 0.00 | 0.00 | 0.00 | 1015.7 | |
| 20260507043314 | 61 | 180 | 1.0 | 1.0 | 0.00 | 0.00 | 0.00 | 1015.6 | |
| 20260507043213 | 61 | 202 | 1.0 | 1.0 | 0.00 | 0.00 | 0.00 | 1015.6 | |
| 20260507042814 | 61 | 180 | 0.0 | 1.0 | 0.00 | 0.00 | 0.00 | 1015.6 | |
| 20260507042413 | 61 | 247 | 0.0 | 2.0 | 0.00 | 0.00 | 0.00 | 1015.7 | |
| 20260507042313 | 61 | 202 | 2.0 | 3.0 | 0.00 | 0.00 | 0.00 | 1015.7 | |
| 20260507042213 | 61 | 225 | 2.0 | 2.0 | 0.00 | 0.00 | 0.00 | 1015.8 | |
| 20260507041513 | 61 | 202 | 2.0 | 4.0 | 0.00 | 0.00 | 0.00 | 1015.7 | |
| 20260507041113 | 61 | 225 | 2.0 | 3.0 | 0.00 | 0.00 | 0.00 | 1015.6 | |
| 20260507040714 | 62 | 225 | 2.0 | 2.0 | 0.00 | 0.00 | 0.00 | 1015.6 | |
| 20260507040613 | 62 | 225 | 3.0 | 4.0 | 0.00 | 0.00 | 0.00 | 1015.6 | |
| 20260507040513 | 62 | 225 | 2.0 | 4.0 | 0.00 | 0.00 | 0.00 | 1015.6 | |
| 20260507040413 | 62 | 180 | 3.0 | 3.0 | 0.00 | 0.00 | 0.00 | 1015.6 | |
| 20260507040313 | 62 | 225 | 2.0 | 4.0 | 0.00 | 0.00 | 0.00 | 1015.3 | |
| 20260507035913 | 62 | 180 | 1.0 | 2.0 | 0.00 | 0.00 | 0.00 | 1015.5 | |
| 20260507034913 | 62 | 202 | 3.0 | 4.0 | 0.00 | 0.00 | 0.00 | 1015.4 | |
| 20260507034513 | 62 | 225 | 3.0 | 4.0 | 0.00 | 0.00 | 0.00 | 1015.3 | |
| 20260507034413 | 62 | 225 | 1.0 | 2.0 | 0.00 | 0.00 | 0.00 | 1015.2 | |
| 20260507033713 | 63 | 202 | 1.0 | 2.0 | 0.00 | 0.00 | 0.00 | 1015.2 | |
| 20260507033613 | 63 | 225 | 3.0 | 4.0 | 0.00 | 0.00 | 0.00 | 1015.1 | |
| 20260507033213 | 63 | 225 | 2.0 | 3.0 | 0.00 | 0.00 | 0.00 | 1015.2 | |
| 20260507033113 | 63 | 225 | 3.0 | 4.0 | 0.00 | 0.00 | 0.00 | 1015.3 | |
| 20260507033013 | 63 | 225 | 3.0 | 4.0 | 0.00 | 0.00 | 0.00 | 1015.3 | |
| 20260507032913 | 63 | 202 | 1.0 | 3.0 | 0.00 | 0.00 | 0.00 | 1015.2 | |
| 20260507032514 | 63 | 202 | 1.0 | 2.0 | 0.00 | 0.00 | 0.00 | 1015.2 | |
| 20260507032413 | 63 | 202 | 3.0 | 4.0 | 0.00 | 0.00 | 0.00 | 1015.1 | |
| 20260507031413 | 63 | 225 | 2.0 | 3.0 | 0.00 | 0.00 | 0.00 | 1015.1 | |
| 20260507031313 | 63 | 225 | 3.0 | 4.0 | 0.00 | 0.00 | 0.00 | 1015.0 | |
| 20260507031213 | 63 | 225 | 3.0 | 5.0 | 0.00 | 0.00 | 0.00 | 1015.1 | |
| 20260507030813 | 63 | 202 | 4.0 | 5.0 | 0.00 | 0.00 | 0.00 | 1015.0 | |
| 20260507030113 | 64 | 225 | 1.0 | 2.0 | 0.00 | 0.00 | 0.00 | 1015.1 | |
| 20260507030013 | 64 | 247 | 1.0 | 2.0 | 0.00 | 0.00 | 0.00 | 1014.9 | |
| 20260507025913 | 64 | 202 | 1.0 | 2.0 | 0.00 | 0.00 | 0.00 | 1014.7 | |
| 20260507025813 | 64 | 225 | 2.0 | 4.0 | 0.00 | 0.00 | 0.00 | 1014.8 | |
| 20260507025413 | 64 | 202 | 2.0 | 3.0 | 0.00 | 0.00 | 0.00 | 1014.8 | |
| 20260507025313 | 64 | 225 | 2.0 | 4.0 | 0.00 | 0.00 | 0.00 | 1015.0 | |
| 20260507024913 | 64 | 225 | 2.0 | 3.0 | 0.00 | 0.00 | 0.00 | 1014.9 | |
| 20260507024814 | 64 | 247 | 2.0 | 4.0 | 0.00 | 0.00 | 0.00 | 1014.9 | |
| 20260507024713 | 64 | 202 | 2.0 | 4.0 | 0.00 | 0.00 | 0.00 | 1014.9 | |
| 20260507024313 | 64 | 225 | 3.0 | 5.0 | 0.00 | 0.00 | 0.00 | 1014.8 | |
| 20260507024213 | 64 | 202 | 3.0 | 5.0 | 0.00 | 0.00 | 0.00 | 1014.8 | |
| 20260507023213 | 65 | 247 | 2.0 | 3.0 | 0.00 | 0.00 | 0.00 | 1014.7 | |
| 20260507023114 | 65 | 202 | 2.0 | 4.0 | 0.00 | 0.00 | 0.00 | 1014.7 | |
| 20260507022113 | 65 | 202 | 5.0 | 6.0 | 0.00 | 0.00 | 0.00 | 1014.4 | |
| 20260507021413 | 66 | 202 | 5.0 | 8.0 | 0.00 | 0.00 | 0.00 | 1014.6 | |
| 20260507021313 | 66 | 225 | 5.0 | 9.0 | 0.00 | 0.00 | 0.00 | 1014.5 | |
| 20260507020013 | 67 | 225 | 5.0 | 7.0 | 0.00 | 0.00 | 0.00 | 1014.1 | |
| 20260507015913 | 67 | 225 | 4.0 | 6.0 | 0.00 | 0.00 | 0.00 | 1014.3 | |
| 20260507014613 | 68 | 157 | 2.0 | 4.0 | 0.00 | 0.00 | 0.00 | 1014.1 | |
| 20260507014214 | 67 | 225 | 4.0 | 5.0 | 0.00 | 0.00 | 0.00 | 1014.1 | |
| 20260507013513 | 68 | 225 | 5.0 | 7.0 | 0.00 | 0.00 | 0.00 | 1014.0 | |
| 20260507013413 | 68 | 225 | 5.0 | 7.0 | 0.00 | 0.00 | 0.00 | 1014.1 | |
| 20260507013013 | 68 | 202 | 5.0 | 8.0 | 0.00 | 0.00 | 0.00 | 1014.1 | |
| 20260507012913 | 68 | 180 | 2.0 | 3.0 | 0.00 | 0.00 | 0.00 | 1014.1 | |
| 20260507012813 | 68 | 202 | 2.0 | 5.0 | 0.00 | 0.00 | 0.00 | 1014.2 | |
| 20260507012713 | 68 | 225 | 4.0 | 6.0 | 0.00 | 0.00 | 0.00 | 1014.0 | |
| 20260507011413 | 69 | 157 | 4.0 | 5.0 | 0.00 | 0.00 | 0.00 | 1013.9 | |
| 20260507010113 | 69 | 202 | 4.0 | 9.0 | 0.00 | 0.00 | 0.00 | 1013.9 | |
| 20260507010014 | 69 | 225 | 4.0 | 7.0 | 0.00 | 0.00 | 0.00 | 1013.7 | |
| 20260507005913 | 69 | 157 | 1.0 | 3.0 | 0.00 | 0.00 | 0.00 | 1013.8 | |
| 20260507005513 | 69 | 225 | 5.0 | 8.0 | 0.00 | 0.00 | 0.00 | 1013.8 | |
| 20260507004514 | 70 | 225 | 5.0 | 9.0 | 0.00 | 0.00 | 0.00 | 1013.9 | |
| 20260507004113 | 70 | 225 | 4.0 | 5.0 | 0.00 | 0.00 | 0.00 | 1013.7 | |
| 20260507003713 | 70 | 225 | 6.0 | 7.0 | 0.00 | 0.00 | 0.00 | 1013.8 | |
| 20260507002713 | 71 | 225 | 6.0 | 9.0 | 0.00 | 0.00 | 0.00 | 1013.9 | |
| 20260507002613 | 71 | 202 | 7.0 | 10.0 | 0.00 | 0.00 | 0.00 | 1013.8 | |
| 20260507002513 | 71 | 225 | 3.0 | 5.0 | 0.00 | 0.00 | 0.00 | 1014.0 | |
| 20260507002413 | 71 | 225 | 4.0 | 9.0 | 0.00 | 0.00 | 0.00 | 1014.0 | |
| 20260507002313 | 71 | 180 | 5.0 | 8.0 | 0.00 | 0.00 | 0.00 | 1013.8 | |
| 20260507001913 | 71 | 157 | 3.0 | 6.0 | 0.00 | 0.00 | 0.00 | 1013.9 | |
| 20260507001513 | 71 | 247 | 6.0 | 9.0 | 0.00 | 0.00 | 0.00 | 1013.8 | |
| 20260507000213 | 72 | 180 | 3.0 | 5.0 | 0.00 | 0.00 | 0.00 | 1013.8 | |
| 20260507000113 | 72 | 202 | 5.0 | 8.0 | 0.00 | 0.00 | 0.00 | 1013.8 | |
| 20260507000013 | 72 | 225 | 5.0 | 10.0 | 0.00 | 0.00 | 0.00 | 1013.8 | |
| 20260506235913 | 72 | 202 | 4.0 | 8.0 | 0.00 | 0.00 | 0.00 | 1013.6 | |
| 20260506235813 | 72 | 225 | 2.0 | 3.0 | 0.00 | 0.00 | 0.00 | 1013.8 | |
| 20260506235713 | 72 | 202 | 3.0 | 6.0 | 0.00 | 0.00 | 0.00 | 1013.7 | |
| 20260506235613 | 72 | 180 | 6.0 | 10.0 | 0.00 | 0.00 | 0.00 | 1013.7 | |
| 20260506234613 | 73 | 202 | 8.0 | 11.0 | 0.00 | 0.00 | 0.00 | 1013.7 | |
| 20260506234513 | 73 | 247 | 8.0 | 12.0 | 0.00 | 0.00 | 0.00 | 1013.6 | |
| 20260506234413 | 74 | 202 | 7.0 | 11.0 | 0.00 | 0.00 | 0.00 | 1013.6 | |
| 20260506234313 | 74 | 225 | 5.0 | 7.0 | 0.00 | 0.00 | 0.00 | 1013.8 | |
| 20260506234213 | 74 | 225 | 5.0 | 7.0 | 0.00 | 0.00 | 0.00 | 1013.7 | |
| 20260506233813 | 74 | 202 | 5.0 | 9.0 | 0.00 | 0.00 | 0.00 | 1013.6 | |
| 20260506233113 | 74 | 202 | 5.0 | 10.0 | 0.00 | 0.00 | 0.00 | 1013.6 | |
| 20260506232713 | 73 | 225 | 6.0 | 8.0 | 0.00 | 0.00 | 0.00 | 1013.6 | |
| 20260506232314 | 74 | 225 | 5.0 | 8.0 | 0.00 | 0.00 | 0.00 | 1013.6 | |
| 20260506231913 | 74 | 135 | 4.0 | 9.0 | 0.00 | 0.00 | 0.00 | 1013.7 | |
| 20260506231813 | 74 | 157 | 8.0 | 12.0 | 0.00 | 0.00 | 0.00 | 1013.8 | |
| 20260506231713 | 74 | 180 | 6.0 | 11.0 | 0.00 | 0.00 | 0.00 | 1013.8 | |
| 20260506230413 | 76 | 225 | 6.0 | 7.0 | 0.00 | 0.00 | 0.00 | 1013.6 | |
| 20260506230313 | 77 | 225 | 9.0 | 11.0 | 0.00 | 0.00 | 0.00 | 1013.4 | |
| 20260506225013 | 79 | 180 | 4.0 | 7.0 | 0.00 | 0.00 | 0.00 | 1013.8 | |
| 20260506224913 | 79 | 202 | 4.0 | 8.0 | 0.00 | 0.00 | 0.00 | 1013.6 | |
| 20260506224213 | 79 | 225 | 6.0 | 9.0 | 0.00 | 0.00 | 0.00 | 1013.8 | |
| 20260506223513 | 80 | 270 | 5.0 | 9.0 | 0.00 | 0.00 | 0.00 | 1013.6 | |
| 20260506223414 | 80 | 225 | 3.0 | 5.0 | 0.00 | 0.00 | 0.00 | 1013.7 | |
| 20260506223313 | 80 | 112 | 3.0 | 8.0 | 0.00 | 0.00 | 0.00 | 1013.6 | |
| 20260506223213 | 80 | 180 | 3.0 | 4.0 | 0.00 | 0.00 | 0.00 | 1013.6 | |
| 20260506222813 | 80 | 202 | 4.0 | 9.0 | 0.00 | 0.00 | 0.00 | 1013.9 | |
| 20260506222413 | 80 | 157 | 4.0 | 6.0 | 0.00 | 0.00 | 0.00 | 1014.0 | |
| 20260506221713 | 81 | 180 | 3.0 | 5.0 | 0.00 | 0.00 | 0.00 | 1013.8 | |
| 20260506221613 | 81 | 202 | 4.0 | 7.0 | 0.00 | 0.00 | 0.00 | 1013.8 | |
| 20260506221513 | 81 | 202 | 5.0 | 6.0 | 0.00 | 0.00 | 0.00 | 1014.0 | |
| 20260506221413 | 81 | 315 | 2.0 | 5.0 | 0.00 | 0.00 | 0.00 | 1013.8 | |
| 20260506221313 | 81 | 112 | 2.0 | 3.0 | 0.00 | 0.00 | 0.00 | 1013.9 | |
| 20260506221213 | 81 | 225 | 2.0 | 4.0 | 0.00 | 0.00 | 0.00 | 1014.2 | |
| 20260506215913 | 81 | 157 | 2.0 | 2.0 | 0.00 | 0.00 | 0.00 | 1014.1 | |
| 20260506215813 | 80 | 135 | 2.0 | 4.0 | 0.00 | 0.00 | 0.00 | 1014.1 | |
| 20260506215713 | 80 | 270 | 2.0 | 4.0 | 0.00 | 0.00 | 0.00 | 1014.1 | |
| 20260506215013 | 79 | 270 | 2.0 | 3.0 | 0.00 | 0.00 | 0.00 | 1014.1 | |
| 20260506214913 | 79 | 292 | 3.0 | 4.0 | 0.00 | 0.00 | 0.00 | 1014.0 | |
| 20260506214514 | 79 | 180 | 3.0 | 5.0 | 0.00 | 0.00 | 0.00 | 1014.2 | |
| 20260506214113 | 79 | 135 | 1.0 | 2.0 | 0.00 | 0.00 | 0.00 | 1014.3 | |
| 20260506213113 | 82 | 22 | 3.0 | 4.0 | 0.00 | 0.00 | 0.00 | 1014.7 | |
| 20260506213013 | 82 | 337 | 2.0 | 5.0 | 0.00 | 0.00 | 0.00 | 1014.7 | |
| 20260506212914 | 82 | 337 | 1.0 | 2.0 | 0.00 | 0.00 | 0.00 | 1014.6 | |
| 20260506212213 | 80 | 180 | 2.0 | 3.0 | 0.00 | 0.00 | 0.00 | 1014.7 | |
| 20260506211213 | 80 | 225 | 4.0 | 5.0 | 0.00 | 0.00 | 0.00 | 1014.7 | |
| 20260506211113 | 80 | 225 | 2.0 | 6.0 | 0.00 | 0.00 | 0.00 | 1014.8 | |
| 20260506210714 | 78 | 67 | 2.0 | 3.0 | 0.00 | 0.00 | 0.00 | 1014.8 | |
| 20260506210613 | 78 | 45 | 2.0 | 3.0 | 0.00 | 0.00 | 0.00 | 1014.8 | |
| 20260506210513 | 78 | 45 | 3.0 | 4.0 | 0.00 | 0.00 | 0.00 | 1014.8 | |
| 20260506205813 | 79 | 225 | 4.0 | 5.0 | 0.00 | 0.00 | 0.00 | 1014.9 | |
| 20260506205713 | 79 | 225 | 2.0 | 3.0 | 0.00 | 0.00 | 0.00 | 1015.1 | |
| 20260506204713 | 77 | 112 | 2.0 | 4.0 | 0.00 | 0.00 | 0.00 | 1015.3 | |
| 20260506204313 | 77 | 315 | 3.0 | 5.0 | 0.00 | 0.00 | 0.00 | 1015.4 | |
| 20260506203913 | 76 | 270 | 2.0 | 4.0 | 0.00 | 0.00 | 0.00 | 1015.4 | |
| 20260506203813 | 76 | 202 | 2.0 | 4.0 | 0.00 | 0.00 | 0.00 | 1015.3 | |
| 20260506203713 | 76 | 337 | 3.0 | 4.0 | 0.00 | 0.00 | 0.00 | 1015.4 | |
| 20260506203613 | 76 | 270 | 4.0 | 7.0 | 0.00 | 0.00 | 0.00 | 1015.5 | |
| 20260506203213 | 77 | 225 | 6.0 | 9.0 | 0.00 | 0.00 | 0.00 | 1015.5 | |
| 20260506203113 | 77 | 225 | 1.0 | 3.0 | 0.00 | 0.00 | 0.00 | 1015.3 | |
| 20260506202713 | 76 | 225 | 1.0 | 2.0 | 0.00 | 0.00 | 0.00 | 1015.4 | |
| 20260506202613 | 76 | 180 | 1.0 | 2.0 | 0.00 | 0.00 | 0.00 | 1015.4 | |
| 20260506202213 | 74 | 0 | 1.0 | 2.0 | 0.00 | 0.00 | 0.00 | 1015.7 | |
| 20260506201813 | 74 | 202 | 4.0 | 6.0 | 0.00 | 0.00 | 0.00 | 1015.7 | |
| 20260506201413 | 74 | 225 | 5.0 | 9.0 | 0.00 | 0.00 | 0.00 | 1015.6 | |
| 20260506201013 | 75 | 225 | 5.0 | 8.0 | 0.00 | 0.00 | 0.00 | 1015.6 | |
| 20260506195713 | 75 | 337 | 5.0 | 6.0 | 0.00 | 0.00 | 0.00 | 1015.8 | |
| 20260506195613 | 75 | 315 | 2.0 | 3.0 | 0.00 | 0.00 | 0.00 | 1015.7 | |
| 20260506195214 | 75 | 292 | 1.0 | 2.0 | 0.00 | 0.00 | 0.00 | 1015.8 | |
| 20260506195113 | 75 | 112 | 3.0 | 5.0 | 0.00 | 0.00 | 0.00 | 1015.7 | |
| 20260506194713 | 75 | 0 | 3.0 | 3.0 | 0.00 | 0.00 | 0.00 | 1015.9 | |
| 20260506194313 | 74 | 180 | 2.0 | 3.0 | 0.00 | 0.00 | 0.00 | 1015.9 | |
| 20260506194213 | 74 | 225 | 2.0 | 3.0 | 0.00 | 0.00 | 0.00 | 1015.9 | |
| 20260506193813 | 73 | 180 | 2.0 | 3.0 | 0.00 | 0.00 | 0.00 | 1016.0 | |
| 20260506193413 | 72 | 0 | 2.0 | 3.0 | 0.00 | 0.00 | 0.00 | 1016.1 | |
| 20260506193313 | 72 | 292 | 4.0 | 5.0 | 0.00 | 0.00 | 0.00 | 1016.2 | |
| 20260506193213 | 71 | 225 | 2.0 | 5.0 | 0.00 | 0.00 | 0.00 | 1016.1 | |
| 20260506192513 | 72 | 225 | 3.0 | 6.0 | 0.00 | 0.00 | 0.00 | 1016.1 | |
| 20260506191813 | 74 | 225 | 3.0 | 6.0 | 0.00 | 0.00 | 0.00 | 1016.3 | |
| 20260506191713 | 74 | 202 | 1.0 | 4.0 | 0.00 | 0.00 | 0.00 | 1016.2 | |
| 20260506190413 | 71 | 112 | 2.0 | 4.0 | 0.00 | 0.00 | 0.00 | 1016.3 | |
| 20260506190313 | 70 | 135 | 1.0 | 2.0 | 0.00 | 0.00 | 0.00 | 1016.6 | |
| 20260506185913 | 70 | 247 | 1.0 | 1.0 | 0.00 | 0.00 | 0.00 | 1016.6 | |
| 20260506184914 | 71 | 315 | 1.0 | 2.0 | 0.00 | 0.00 | 0.00 | 1016.5 | |
| 20260506184513 | 70 | 0 | 1.0 | 2.0 | 0.00 | 0.00 | 0.00 | 1016.6 | |
| 20260506184413 | 70 | 112 | 1.0 | 2.0 | 0.00 | 0.00 | 0.00 | 1016.6 | |
| 20260506183713 | 70 | 202 | 1.0 | 2.0 | 0.00 | 0.00 | 0.00 | 1016.7 | |
| 20260506183613 | 70 | 135 | 1.0 | 3.0 | 0.00 | 0.00 | 0.00 | 1016.7 | |
| 20260506183513 | 70 | 157 | 1.0 | 2.0 | 0.00 | 0.00 | 0.00 | 1016.8 | |
| 20260506183413 | 70 | 157 | 1.0 | 2.0 | 0.00 | 0.00 | 0.00 | 1016.8 | |
| 20260506183313 | 70 | 157 | 2.0 | 2.0 | 0.00 | 0.00 | 0.00 | 1016.7 | |
| 20260506183213 | 70 | 135 | 1.0 | 2.0 | 0.00 | 0.00 | 0.00 | 1016.8 | |
| 20260506183114 | 70 | 180 | 2.0 | 3.0 | 0.00 | 0.00 | 0.00 | 1016.8 | |
| 20260506182713 | 69 | 180 | 3.0 | 6.0 | 0.00 | 0.00 | 0.00 | 1016.8 | |
| 20260506182313 | 69 | 225 | 2.0 | 3.0 | 0.00 | 0.00 | 0.00 | 1016.9 | |
| 20260506181313 | 68 | 315 | 3.0 | 3.0 | 0.00 | 0.00 | 0.00 | 1017.0 | |
| 20260506181213 | 68 | 337 | 2.0 | 4.0 | 0.00 | 0.00 | 0.00 | 1016.8 | |
| 20260506174713 | 67 | 202 | 2.0 | 3.0 | 0.00 | 0.00 | 0.00 | 1017.0 | |
| 20260506174013 | 68 | 225 | 1.0 | 2.0 | 0.00 | 0.00 | 0.00 | 1017.0 | |
| 20260506173313 | 68 | 157 | 1.0 | 2.0 | 0.00 | 0.00 | 0.00 | 1017.0 | |
| 20260506172313 | 66 | 202 | 1.0 | 2.0 | 0.00 | 0.00 | 0.00 | 1017.1 | |
| 20260506172213 | 66 | 292 | 1.0 | 2.0 | 0.00 | 0.00 | 0.00 | 1017.1 | |
| 20260506172113 | 66 | 292 | 2.0 | 3.0 | 0.00 | 0.00 | 0.00 | 1017.0 | |
| 20260506170813 | 63 | 202 | 1.0 | 2.0 | 0.00 | 0.00 | 0.00 | 1016.8 | |
| 20260506170413 | 62 | 180 | 1.0 | 3.0 | 0.00 | 0.00 | 0.00 | 1016.9 | |
| 20260506165713 | 62 | 225 | 3.0 | 4.0 | 0.00 | 0.00 | 0.00 | 1016.7 | |
| 20260506165313 | 64 | 180 | 2.0 | 4.0 | 0.00 | 0.00 | 0.00 | 1017.0 | |
| 20260506164013 | 63 | 225 | 1.0 | 2.0 | 0.00 | 0.00 | 0.00 | 1016.9 | |
| 20260506163913 | 63 | 202 | 0.0 | 2.0 | 0.00 | 0.00 | 0.00 | 1017.0 | |
| 20260506162013 | 63 | 180 | 2.0 | 2.0 | 0.00 | 0.00 | 0.00 | 1017.0 | |
| 20260506161613 | 63 | 247 | 2.0 | 3.0 | 0.00 | 0.00 | 0.00 | 1017.1 | |
| 20260506161213 | 64 | 112 | 1.0 | 2.0 | 0.00 | 0.00 | 0.00 | 1017.0 | |
| 20260506161113 | 64 | 180 | 1.0 | 3.0 | 0.00 | 0.00 | 0.00 | 1016.9 | |
| 20260506161014 | 64 | 157 | 0.0 | 1.0 | 0.00 | 0.00 | 0.00 | 1016.6 | |
| 20260506160613 | 64 | 180 | 1.0 | 1.0 | 0.00 | 0.00 | 0.00 | 1016.9 | |
| 20260506155913 | 65 | 202 | 0.0 | 1.0 | 0.00 | 0.00 | 0.00 | 1016.9 | |
| 20260506155213 | 63 | 0 | 1.0 | 2.0 | 0.00 | 0.00 | 0.00 | 1016.8 | |
| 20260506155113 | 63 | 292 | 1.0 | 2.0 | 0.00 | 0.00 | 0.00 | 1016.9 | |
| 20260506155013 | 63 | 337 | 1.0 | 2.0 | 0.00 | 0.00 | 0.00 | 1017.0 | |
| 20260506154614 | 63 | 67 | 2.0 | 3.0 | 0.00 | 0.00 | 0.00 | 1017.0 | |
| 20260506154213 | 63 | 112 | 1.0 | 3.0 | 0.00 | 0.00 | 0.00 | 1017.1 | |
| 20260506153815 | 64 | 135 | 1.0 | 2.0 | 0.00 | 0.00 | 0.00 | 1017.1 | |
| 20260506153713 | 63 | 135 | 0.0 | 1.0 | 0.00 | 0.00 | 0.00 | 1017.0 | |
| 20260506153314 | 63 | 45 | 1.0 | 2.0 | 0.00 | 0.00 | 0.00 | 1017.1 | |
| 20260506153213 | 63 | 202 | 0.0 | 2.0 | 0.00 | 0.00 | 0.00 | 1017.0 | |
| 20260506151913 | 62 | 90 | 2.0 | 3.0 | 0.00 | 0.00 | 0.00 | 1017.0 | |
| 20260506151513 | 61 | 135 | 1.0 | 2.0 | 0.00 | 0.00 | 0.00 | 1017.1 | |
| 20260506151414 | 61 | 135 | 1.0 | 1.0 | 0.00 | 0.00 | 0.00 | 1017.0 | |
| 20260506150414 | 62 | 90 | 0.0 | 0.0 | 0.00 | 0.00 | 0.00 | 1017.0 | |
| 20260506150313 | 61 | 90 | 0.0 | 1.0 | 0.00 | 0.00 | 0.00 | 1017.0 | |
| 20260506150215 | 61 | 90 | 1.0 | 2.0 | 0.00 | 0.00 | 0.00 | 1017.0 | |
| 20260506145513 | 61 | 90 | 1.0 | 1.0 | 0.00 | 0.00 | 0.00 | 1017.0 | |
| 20260506144815 | 60 | 112 | 1.0 | 2.0 | 0.00 | 0.00 | 0.00 | 1016.9 | |
| 20260506144113 | 60 | 45 | 0.0 | 1.0 | 0.00 | 0.00 | 0.00 | 1016.9 | |
| 20260506142513 | 57 | 45 | 0.0 | 0.0 | 0.00 | 0.00 | 0.00 | 1017.0 | |
| 20260506142113 | 56 | 45 | 0.0 | 1.0 | 0.00 | 0.00 | 0.00 | 1016.8 | |
| 20260506142013 | 55 | 45 | 0.0 | 1.0 | 0.00 | 0.00 | 0.00 | 1016.8 | |
| 20260506141913 | 55 | 292 | 0.0 | 0.0 | 0.00 | 0.00 | 0.00 | 1016.8 | |
| 20260506141813 | 55 | 315 | 0.0 | 0.0 | 0.00 | 0.00 | 0.00 | 1016.8 | |
| 20260506141413 | 53 | 0 | 0.0 | 0.0 | 0.00 | 0.00 | 0.00 | 1017.2 | |
| 20260506140414 | 49 | 22 | 0.0 | 0.0 | 0.00 | 0.00 | 0.00 | 1016.9 | |
| 20260506135714 | 48 | 22 | 0.0 | 0.0 | 0.00 | 0.00 | 0.00 | 1016.9 | |
| 20260506135313 | 47 | 22 | 0.0 | 0.0 | 0.00 | 0.00 | 0.00 | 1016.8 | |
| 20260506134613 | 46 | 22 | 0.0 | 0.0 | 0.00 | 0.00 | 0.00 | 1016.8 | |
| 20260506133913 | 46 | 22 | 0.0 | 0.0 | 0.00 | 0.00 | 0.00 | 1016.9 | |
| 20260506132913 | 46 | 22 | 0.0 | 0.0 | 0.00 | 0.00 | 0.00 | 1016.6 | |
| 20260506132514 | 46 | 22 | 0.0 | 0.0 | 0.00 | 0.00 | 0.00 | 1016.7 | |
| 20260506132113 | 46 | 22 | 0.0 | 0.0 | 0.00 | 0.00 | 0.00 | 1016.5 | |
| 20260506131413 | 45 | 22 | 0.0 | 0.0 | 0.00 | 0.00 | 0.00 | 1016.5 | |
| 20260506131013 | 45 | 22 | 0.0 | 0.0 | 0.00 | 0.00 | 0.00 | 1016.6 | |
| 20260506130613 | 45 | 22 | 0.0 | 1.0 | 0.00 | 0.00 | 0.00 | 1016.5 | |
| 20260506130213 | 44 | 22 | 0.0 | 1.0 | 0.00 | 0.00 | 0.00 | 1016.4 | |
| 20260506125813 | 44 | 22 | 0.0 | 1.0 | 0.00 | 0.00 | 0.00 | 1016.5 | |
| 20260506124513 | 44 | 22 | 0.0 | 0.0 | 0.00 | 0.00 | 0.00 | 1016.6 | |
| 20260506124413 | 44 | 22 | 0.0 | 0.0 | 0.00 | 0.00 | 0.00 | 1016.5 | |
| 20260506124313 | 44 | 22 | 0.0 | 0.0 | 0.00 | 0.00 | 0.00 | 1016.5 | |
| 20260506123913 | 44 | 22 | 0.0 | 0.0 | 0.00 | 0.00 | 0.00 | 1016.6 | |
| 20260506123813 | 44 | 22 | 0.0 | 0.0 | 0.00 | 0.00 | 0.00 | 1016.4 | |
| 20260506123414 | 44 | 22 | 0.0 | 0.0 | 0.00 | 0.00 | 0.00 | 1016.2 | |
| 20260506123313 | 43 | 22 | 0.0 | 0.0 | 0.00 | 0.00 | 0.00 | 1016.4 | |
| 20260506122613 | 43 | 22 | 0.0 | 0.0 | 0.00 | 0.00 | 0.00 | 1016.1 | |
| 20260506122214 | 43 | 22 | 0.0 | 0.0 | 0.00 | 0.00 | 0.00 | 1016.2 | |
| 20260506121213 | 44 | 22 | 0.0 | 0.0 | 0.00 | 0.00 | 0.00 | 1016.1 | |
| 20260506120813 | 44 | 22 | 0.0 | 0.0 | 0.00 | 0.00 | 0.00 | 1016.1 | |
| 20260506120414 | 44 | 22 | 0.0 | 0.0 | 0.00 | 0.00 | 0.00 | 1016.0 | |
| 20260506120313 | 44 | 22 | 0.0 | 0.0 | 0.00 | 0.00 | 0.00 | 1016.0 | |
| 20260506114713 | 44 | 22 | 1.0 | 1.0 | 0.00 | 0.00 | 0.00 | 1016.0 |